Terminal Aerodrome Forecast
Issued by NWS Upton, NY

Home | Current Version | Previous Version | Text Only | Print | Product List | Glossary On
Versions: 1 2 3 4 5 6 7 8 9 10 11 12 13 14 15 16 17 18 19 20 21 22 23 24 25 26 27 28
000
FTUS41 KOKX 300000 RRA
TAFEWR
TAF
KEWR 300008Z 3000/3106 31007KT P6SM SCT070
     FM300400 VRB04KT P6SM SCT060
     FM301600 23008KT P6SM SCT060
     FM310100 24005KT P6SM SCT060=

USA.gov is the U.S. government's official web portal to all federal, state and local government web resources and services.